Time,TemperatureF,DewpointF,PressureIn,WindDirection,WindDirectionDegrees,WindSpeedMPH,WindSpeedGustMPH,Humidity,HourlyPrecipIn,Conditions,Clouds,dailyrainin,SoftwareType,DateUTC
2013-09-29 00:02:00,63.0,54.5,30.05,NNE,22,0.0,0.0,74,0.00,,,0.00,open2300-1.11,2013-09-29 04:02:00,
2013-09-29 00:12:00,62.8,54.7,30.05,NNE,22,0.0,0.0,75,0.00,,,0.00,open2300-1.11,2013-09-29 04:12:00,
2013-09-29 00:22:00,62.2,54.2,30.06,NNE,22,0.0,0.0,75,0.00,,,0.00,open2300-1.11,2013-09-29 04:22:00,
2013-09-29 00:32:00,61.7,53.7,30.06,NNE,22,0.0,0.0,75,0.00,,,0.00,open2300-1.11,2013-09-29 04:32:00,
2013-09-29 00:42:00,61.5,54.2,30.06,NNE,22,0.0,0.0,77,0.00,,,0.00,open2300-1.11,2013-09-29 04:42:00,
2013-09-29 00:52:00,61.5,54.2,30.06,NNE,22,0.0,0.0,77,0.00,,,0.00,open2300-1.11,2013-09-29 04:52:00,
2013-09-29 01:02:00,61.3,54.1,30.06,NNE,22,0.0,0.0,77,0.00,,,0.00,open2300-1.11,2013-09-29 05:02:00,
2013-09-29 01:12:00,61.5,54.2,30.06,NNE,22,0.0,0.0,77,0.00,,,0.00,open2300-1.11,2013-09-29 05:12:00,
2013-09-29 01:22:00,61.5,54.2,30.05,NNE,22,0.0,0.0,77,0.00,,,0.00,open2300-1.11,2013-09-29 05:22:00,
2013-09-29 01:32:00,61.5,54.2,30.05,NNE,22,0.0,0.0,77,0.00,,,0.00,open2300-1.11,2013-09-29 05:32:00,
2013-09-29 01:42:00,61.7,54.4,30.05,NNE,22,0.0,0.0,77,0.00,,,0.00,open2300-1.11,2013-09-29 05:42:00,
2013-09-29 01:52:00,61.7,54.4,30.05,NNE,22,0.0,0.0,77,0.00,,,0.00,open2300-1.11,2013-09-29 05:52:00,
2013-09-29 02:02:00,61.7,54.0,30.04,NNE,22,0.0,0.0,76,0.00,,,0.00,open2300-1.11,2013-09-29 06:02:00,
2013-09-29 02:12:00,61.9,54.2,30.04,NE,45,0.0,0.0,76,0.00,,,0.00,open2300-1.11,2013-09-29 06:12:00,
2013-09-29 02:22:00,61.9,53.8,30.04,NE,45,0.0,0.0,75,0.00,,,0.00,open2300-1.11,2013-09-29 06:22:00,
2013-09-29 02:32:00,61.9,53.5,30.03,ENE,67,0.0,0.0,74,0.00,,,0.00,open2300-1.11,2013-09-29 06:32:00,
2013-09-29 02:42:00,62.1,53.7,30.03,ENE,67,0.0,0.0,74,0.00,,,0.00,open2300-1.11,2013-09-29 06:42:00,
2013-09-29 02:52:00,62.2,53.8,30.03,ENE,67,0.0,0.0,74,0.00,,,0.00,open2300-1.11,2013-09-29 06:52:00,
2013-09-29 03:02:00,62.2,53.5,30.02,ENE,67,0.0,0.0,73,0.00,,,0.00,open2300-1.11,2013-09-29 07:02:00,
2013-09-29 03:12:00,62.1,53.7,30.02,ENE,67,0.0,0.0,74,0.00,,,0.00,open2300-1.11,2013-09-29 07:12:00,
2013-09-29 03:22:00,61.9,53.5,30.02,ENE,67,0.0,0.0,74,0.00,,,0.00,open2300-1.11,2013-09-29 07:22:00,
2013-09-29 03:32:00,61.7,53.3,30.02,ENE,67,0.0,0.0,74,0.00,,,0.00,open2300-1.11,2013-09-29 07:32:00,
2013-09-29 03:42:00,61.5,53.2,30.02,ENE,67,0.0,0.0,74,0.00,,,0.00,open2300-1.11,2013-09-29 07:42:00,
2013-09-29 03:52:00,61.5,53.2,30.02,ENE,67,0.0,0.0,74,0.00,,,0.00,open2300-1.11,2013-09-29 07:52:00,
2013-09-29 04:02:00,61.5,53.2,30.01,ENE,67,0.0,0.0,74,0.00,,,0.00,open2300-1.11,2013-09-29 08:02:00,
2013-09-29 04:12:00,61.3,53.0,30.01,ENE,67,0.0,0.0,74,0.00,,,0.00,open2300-1.11,2013-09-29 08:12:00,
2013-09-29 04:22:00,61.3,53.0,30.02,ENE,67,0.0,0.0,74,0.00,,,0.00,open2300-1.11,2013-09-29 08:22:00,
2013-09-29 04:32:00,61.3,53.0,30.01,ENE,67,0.0,0.0,74,0.00,,,0.00,open2300-1.11,2013-09-29 08:32:00,
2013-09-29 04:42:00,61.3,53.0,30.01,ENE,67,0.0,0.0,74,0.00,,,0.00,open2300-1.11,2013-09-29 08:42:00,
2013-09-29 04:52:00,61.2,52.8,30.01,ENE,67,0.0,0.0,74,0.00,,,0.00,open2300-1.11,2013-09-29 08:52:00,
2013-09-29 05:02:00,61.0,52.7,30.00,ENE,67,0.0,0.0,74,0.00,,,0.00,open2300-1.11,2013-09-29 09:02:00,
2013-09-29 05:12:00,60.6,52.7,30.01,ENE,67,0.0,0.0,75,0.00,,,0.00,open2300-1.11,2013-09-29 09:12:00,
2013-09-29 05:22:00,60.6,52.7,30.00,ENE,67,0.0,0.0,75,0.00,,,0.00,open2300-1.11,2013-09-29 09:22:00,
2013-09-29 05:32:00,60.6,53.1,30.00,ENE,67,0.0,0.0,76,0.00,,,0.00,open2300-1.11,2013-09-29 09:32:00,
2013-09-29 05:42:00,60.4,52.9,30.00,ENE,67,0.0,0.0,76,0.00,,,0.00,open2300-1.11,2013-09-29 09:42:00,
2013-09-29 05:52:00,60.4,52.9,30.00,ENE,67,0.0,0.0,76,0.00,,,0.00,open2300-1.11,2013-09-29 09:52:00,
2013-09-29 06:02:00,60.4,52.9,30.00,ENE,67,0.0,0.0,76,0.00,,,0.00,open2300-1.11,2013-09-29 10:02:00,
2013-09-29 06:12:00,60.4,52.9,30.00,ENE,67,0.0,0.0,76,0.00,,,0.00,open2300-1.11,2013-09-29 10:12:00,
2013-09-29 06:22:00,60.6,53.1,30.00,ENE,67,0.0,0.0,76,0.00,,,0.00,open2300-1.11,2013-09-29 10:22:00,
2013-09-29 06:32:00,60.6,53.1,30.00,ENE,67,0.0,0.0,76,0.00,,,0.00,open2300-1.11,2013-09-29 10:32:00,
2013-09-29 06:42:00,60.6,53.1,30.00,ENE,67,0.0,0.0,76,0.00,,,0.00,open2300-1.11,2013-09-29 10:42:00,
2013-09-29 06:52:00,60.6,53.4,30.00,ENE,67,0.0,0.0,77,0.00,,,0.00,open2300-1.11,2013-09-29 10:52:00,
2013-09-29 07:02:00,60.6,53.4,30.00,ENE,67,0.0,0.0,77,0.00,,,0.00,open2300-1.11,2013-09-29 11:02:00,
2013-09-29 07:12:00,60.6,53.4,30.00,ENE,67,0.0,0.0,77,0.00,,,0.00,open2300-1.11,2013-09-29 11:12:00,
2013-09-29 07:22:00,60.4,53.2,30.00,ENE,67,0.0,0.0,77,0.00,,,0.00,open2300-1.11,2013-09-29 11:22:00,
2013-09-29 07:32:00,60.4,53.2,30.00,ENE,67,0.0,0.0,77,0.00,,,0.00,open2300-1.11,2013-09-29 11:32:00,
2013-09-29 07:42:00,60.6,53.4,30.00,ENE,67,0.0,0.0,77,0.00,,,0.00,open2300-1.11,2013-09-29 11:42:00,
2013-09-29 07:52:00,60.6,53.4,30.00,ENE,67,0.0,0.0,77,0.00,,,0.00,open2300-1.11,2013-09-29 11:52:00,
2013-09-29 08:02:00,60.6,53.8,30.01,ENE,67,0.0,0.0,78,0.00,,,0.00,open2300-1.11,2013-09-29 12:02:00,
2013-09-29 08:12:00,60.6,53.8,30.01,ENE,67,0.0,0.0,78,0.00,,,0.00,open2300-1.11,2013-09-29 12:12:00,
2013-09-29 08:22:00,60.6,53.8,30.01,ENE,67,0.0,0.0,78,0.00,,,0.00,open2300-1.11,2013-09-29 12:22:00,
2013-09-29 08:32:00,60.6,53.8,30.00,ENE,67,0.0,0.0,78,0.00,,,0.00,open2300-1.11,2013-09-29 12:32:00,
2013-09-29 08:42:00,60.8,54.0,30.00,ENE,67,0.0,0.0,78,0.00,,,0.00,open2300-1.11,2013-09-29 12:42:00,
2013-09-29 08:52:00,61.0,54.1,30.00,ENE,67,0.0,0.0,78,0.00,,,0.00,open2300-1.11,2013-09-29 12:52:00,
2013-09-29 09:02:00,61.0,54.5,30.00,ENE,67,0.0,0.0,79,0.00,,,0.00,open2300-1.11,2013-09-29 13:02:00,
2013-09-29 09:12:00,61.0,54.5,30.00,ENE,67,0.0,0.0,79,0.00,,,0.00,open2300-1.11,2013-09-29 13:12:00,
2013-09-29 09:22:00,61.2,54.6,30.00,ENE,67,0.0,0.0,79,0.00,,,0.00,open2300-1.11,2013-09-29 13:22:00,
2013-09-29 09:32:00,61.2,54.6,30.01,ENE,67,0.0,0.0,79,0.00,,,0.00,open2300-1.11,2013-09-29 13:32:00,
2013-09-29 09:42:00,61.2,54.6,30.01,ENE,67,0.0,0.0,79,0.00,,,0.00,open2300-1.11,2013-09-29 13:42:00,
2013-09-29 09:52:00,61.2,54.6,30.01,ENE,67,0.0,0.0,79,0.00,,,0.00,open2300-1.11,2013-09-29 13:52:00,
2013-09-29 10:02:00,61.3,54.8,30.01,ENE,67,0.0,0.0,79,0.00,,,0.00,open2300-1.11,2013-09-29 14:02:00,
2013-09-29 10:12:00,61.5,55.0,30.01,ENE,67,0.0,0.0,79,0.00,,,0.00,open2300-1.11,2013-09-29 14:12:00,
2013-09-29 10:22:00,61.5,55.0,30.02,ENE,67,0.0,0.0,79,0.00,,,0.00,open2300-1.11,2013-09-29 14:22:00,
2013-09-29 10:32:00,61.5,55.3,30.02,ENE,67,0.0,0.0,80,0.00,,,0.00,open2300-1.11,2013-09-29 14:32:00,
2013-09-29 10:42:00,61.3,55.5,30.02,ENE,67,0.0,0.0,81,0.00,,,0.00,open2300-1.11,2013-09-29 14:42:00,
2013-09-29 10:52:00,61.2,55.7,30.02,ENE,67,0.0,0.0,82,0.00,,,0.00,open2300-1.11,2013-09-29 14:52:00,
2013-09-29 11:02:00,61.0,55.5,30.02,ENE,67,0.0,0.0,82,0.02,,,0.02,open2300-1.11,2013-09-29 15:02:00,
2013-09-29 11:12:00,60.6,55.5,30.02,ENE,67,0.0,0.0,83,0.02,,,0.02,open2300-1.11,2013-09-29 15:12:00,
2013-09-29 11:22:00,60.6,55.8,30.01,ENE,67,0.0,0.0,84,0.02,,,0.02,open2300-1.11,2013-09-29 15:22:00,
2013-09-29 11:32:00,60.6,55.8,30.02,ENE,67,0.0,0.0,84,0.02,,,0.02,open2300-1.11,2013-09-29 15:32:00,
2013-09-29 11:42:00,60.4,55.9,30.02,ENE,67,0.0,0.0,85,0.04,,,0.04,open2300-1.11,2013-09-29 15:42:00,
2013-09-29 11:52:00,60.4,56.3,30.02,ENE,67,0.0,0.0,86,0.04,,,0.04,open2300-1.11,2013-09-29 15:52:00,
2013-09-29 12:02:00,60.4,56.3,30.02,ENE,67,0.0,0.0,86,0.02,,,0.04,open2300-1.11,2013-09-29 16:02:00,
2013-09-29 12:22:00,60.4,56.3,30.02,ENE,67,0.0,0.0,86,0.02,,,0.04,open2300-1.11,2013-09-29 16:22:00,
2013-09-29 12:32:00,60.4,56.6,30.02,ENE,67,0.0,0.0,87,0.02,,,0.04,open2300-1.11,2013-09-29 16:32:00,
2013-09-29 12:42:00,60.4,56.6,30.01,ENE,67,0.0,0.0,87,0.00,,,0.04,open2300-1.11,2013-09-29 16:42:00,
2013-09-29 12:52:00,60.6,56.8,30.01,ENE,67,0.0,0.0,87,0.00,,,0.04,open2300-1.11,2013-09-29 16:52:00,
2013-09-29 13:02:00,61.0,57.1,30.02,ENE,67,0.0,0.0,87,0.00,,,0.04,open2300-1.11,2013-09-29 17:02:00,
2013-09-29 13:12:00,61.0,57.4,30.02,ENE,67,0.0,0.0,88,0.00,,,0.04,open2300-1.11,2013-09-29 17:12:00,
2013-09-29 13:22:00,61.0,57.4,30.02,ENE,67,0.0,0.0,88,0.00,,,0.04,open2300-1.11,2013-09-29 17:22:00,
2013-09-29 13:32:00,61.2,57.6,30.02,ENE,67,0.0,0.0,88,0.00,,,0.04,open2300-1.11,2013-09-29 17:32:00,
2013-09-29 13:42:00,61.3,57.8,30.02,ENE,67,0.0,0.0,88,0.00,,,0.04,open2300-1.11,2013-09-29 17:42:00,
2013-09-29 13:52:00,61.3,57.8,30.02,ENE,67,0.0,0.0,88,0.00,,,0.04,open2300-1.11,2013-09-29 17:52:00,
2013-09-29 14:02:00,61.3,57.8,30.01,ENE,67,0.0,0.0,88,0.00,,,0.04,open2300-1.11,2013-09-29 18:02:00,
2013-09-29 14:12:00,61.5,58.0,30.01,ENE,67,0.0,0.0,88,0.00,,,0.04,open2300-1.11,2013-09-29 18:12:00,
2013-09-29 14:22:00,61.5,58.0,30.00,ENE,67,0.0,0.0,88,0.00,,,0.04,open2300-1.11,2013-09-29 18:22:00,
2013-09-29 14:32:00,61.7,58.2,30.00,ENE,67,0.0,0.0,88,0.00,,,0.04,open2300-1.11,2013-09-29 18:32:00,
2013-09-29 14:42:00,61.9,58.3,30.00,ENE,67,0.0,0.0,88,0.00,,,0.04,open2300-1.11,2013-09-29 18:42:00,
2013-09-29 14:52:00,61.9,58.3,30.00,ENE,67,0.0,0.0,88,0.00,,,0.04,open2300-1.11,2013-09-29 18:52:00,
2013-09-29 15:02:00,61.9,58.3,30.00,ENE,67,0.0,0.0,88,0.00,,,0.04,open2300-1.11,2013-09-29 19:02:00,
2013-09-29 15:12:00,62.1,58.5,30.00,ENE,67,0.0,0.0,88,0.00,,,0.04,open2300-1.11,2013-09-29 19:12:00,
2013-09-29 15:22:00,62.1,58.5,30.00,ENE,67,0.0,0.0,88,0.00,,,0.04,open2300-1.11,2013-09-29 19:22:00,
2013-09-29 15:32:00,62.1,58.5,29.99,ENE,67,0.0,0.0,88,0.00,,,0.04,open2300-1.11,2013-09-29 19:32:00,
2013-09-29 15:42:00,62.1,58.5,30.00,ENE,67,0.0,0.0,88,0.02,,,0.06,open2300-1.11,2013-09-29 19:42:00,
2013-09-29 15:52:00,61.9,58.3,29.99,ENE,67,0.0,0.0,88,0.02,,,0.06,open2300-1.11,2013-09-29 19:52:00,
2013-09-29 16:02:00,61.7,58.2,30.00,ENE,67,0.0,0.0,88,0.04,,,0.08,open2300-1.11,2013-09-29 20:02:00,
2013-09-29 16:12:00,61.5,58.0,29.99,ENE,67,0.0,0.0,88,0.04,,,0.08,open2300-1.11,2013-09-29 20:12:00,
2013-09-29 16:22:00,61.3,57.8,30.00,ENE,67,0.0,0.0,88,0.06,,,0.10,open2300-1.11,2013-09-29 20:22:00,
2013-09-29 16:32:00,61.0,57.4,30.00,NNE,22,0.0,0.0,88,0.06,,,0.10,open2300-1.11,2013-09-29 20:32:00,
2013-09-29 16:42:00,60.6,57.1,30.01,NNE,22,0.0,0.0,88,0.04,,,0.10,open2300-1.11,2013-09-29 20:42:00,
2013-09-29 16:52:00,60.1,56.5,30.01,NNE,22,0.0,0.0,88,0.04,,,0.10,open2300-1.11,2013-09-29 20:52:00,
2013-09-29 17:02:00,59.9,56.4,30.01,NNE,22,0.0,0.0,88,0.02,,,0.10,open2300-1.11,2013-09-29 21:02:00,
2013-09-29 17:12:00,59.7,56.2,30.01,NNE,22,0.0,0.0,88,0.02,,,0.10,open2300-1.11,2013-09-29 21:12:00,
2013-09-29 17:22:00,59.5,56.0,30.01,NNE,22,0.0,0.0,88,0.00,,,0.10,open2300-1.11,2013-09-29 21:22:00,
2013-09-29 17:32:00,59.5,56.0,30.01,North,0,0.0,0.0,88,0.00,,,0.10,open2300-1.11,2013-09-29 21:32:00,
2013-09-29 17:42:00,59.5,56.0,30.01,North,0,0.0,0.0,88,0.00,,,0.10,open2300-1.11,2013-09-29 21:42:00,
2013-09-29 17:52:00,59.4,55.8,30.01,North,0,0.0,0.0,88,0.00,,,0.10,open2300-1.11,2013-09-29 21:52:00,
2013-09-29 18:02:00,59.2,55.7,30.01,North,0,0.0,0.0,88,0.00,,,0.10,open2300-1.11,2013-09-29 22:02:00,
2013-09-29 18:12:00,59.2,55.7,30.01,North,0,0.0,0.0,88,0.00,,,0.10,open2300-1.11,2013-09-29 22:12:00,
2013-09-29 18:22:00,59.0,55.5,30.02,North,0,0.0,0.0,88,0.02,,,0.12,open2300-1.11,2013-09-29 22:22:00,
2013-09-29 18:32:00,58.8,55.3,30.02,North,0,0.0,0.0,88,0.02,,,0.12,open2300-1.11,2013-09-29 22:32:00,
2013-09-29 18:42:00,58.8,55.3,30.02,North,0,0.0,0.0,88,0.02,,,0.12,open2300-1.11,2013-09-29 22:42:00,
2013-09-29 18:52:00,58.8,55.3,30.02,North,0,0.0,0.0,88,0.02,,,0.12,open2300-1.11,2013-09-29 22:52:00,
2013-09-29 19:02:00,58.8,55.3,30.02,North,0,0.0,0.0,88,0.02,,,0.12,open2300-1.11,2013-09-29 23:02:00,
2013-09-29 19:12:00,58.8,55.6,30.02,North,0,0.0,0.0,88,0.02,,,0.12,open2300-1.11,2013-09-29 23:12:00,
2013-09-29 19:22:00,58.6,55.4,30.01,North,0,0.0,0.0,89,0.00,,,0.12,open2300-1.11,2013-09-29 23:22:00,
2013-09-29 19:32:00,58.6,55.4,30.02,North,0,0.0,0.0,89,0.00,,,0.12,open2300-1.11,2013-09-29 23:32:00,
2013-09-29 19:42:00,58.6,55.4,30.02,North,0,0.0,0.0,89,0.00,,,0.12,open2300-1.11,2013-09-29 23:42:00,
2013-09-29 19:52:00,58.6,55.4,30.02,North,0,0.0,0.0,89,0.00,,,0.12,open2300-1.11,2013-09-29 23:52:00,
2013-09-29 20:02:00,58.6,55.4,30.01,North,0,0.0,0.0,89,0.00,,,0.12,open2300-1.11,2013-09-30 00:02:00,
2013-09-29 20:12:00,58.5,55.3,30.02,North,0,0.0,0.0,89,0.00,,,0.12,open2300-1.11,2013-09-30 00:12:00,
2013-09-29 20:22:00,58.5,55.3,30.02,North,0,0.0,0.0,89,0.00,,,0.12,open2300-1.11,2013-09-30 00:22:00,
2013-09-29 20:32:00,58.3,55.1,30.01,North,0,0.0,0.0,89,0.00,,,0.12,open2300-1.11,2013-09-30 00:32:00,
2013-09-29 20:42:00,58.3,55.1,30.01,North,0,0.0,0.0,89,0.00,,,0.12,open2300-1.11,2013-09-30 00:42:00,
2013-09-29 20:52:00,58.3,55.1,30.01,North,0,0.0,0.0,89,0.00,,,0.12,open2300-1.11,2013-09-30 00:52:00,
2013-09-29 21:02:00,58.3,55.1,30.01,North,0,0.0,0.0,89,0.00,,,0.12,open2300-1.11,2013-09-30 01:02:00,
2013-09-29 21:12:00,58.3,55.1,30.01,North,0,0.0,0.0,89,0.00,,,0.12,open2300-1.11,2013-09-30 01:12:00,
2013-09-29 21:22:00,58.3,55.1,30.02,North,0,0.0,0.0,89,0.00,,,0.12,open2300-1.11,2013-09-30 01:22:00,
2013-09-29 21:32:00,58.3,55.1,30.02,North,0,0.0,0.0,89,0.00,,,0.12,open2300-1.11,2013-09-30 01:32:00,
2013-09-29 21:42:00,58.3,55.1,30.01,North,0,0.0,0.0,89,0.00,,,0.12,open2300-1.11,2013-09-30 01:42:00,
2013-09-29 21:52:00,58.3,55.1,30.02,North,0,0.0,0.0,89,0.00,,,0.12,open2300-1.11,2013-09-30 01:52:00,
2013-09-29 22:02:00,58.3,55.1,30.02,North,0,0.0,0.0,89,0.00,,,0.12,open2300-1.11,2013-09-30 02:02:00,
2013-09-29 22:12:00,58.1,54.9,30.02,North,0,0.0,0.0,89,0.00,,,0.12,open2300-1.11,2013-09-30 02:12:00,
2013-09-29 22:22:00,58.1,54.9,30.01,North,0,0.0,0.0,89,0.00,,,0.12,open2300-1.11,2013-09-30 02:22:00,
2013-09-29 22:32:00,58.3,55.1,30.01,North,0,0.0,0.0,89,0.00,,,0.12,open2300-1.11,2013-09-30 02:32:00,
2013-09-29 22:42:00,58.3,55.1,30.01,North,0,0.0,0.0,89,0.00,,,0.12,open2300-1.11,2013-09-30 02:42:00,
2013-09-29 22:52:00,58.1,54.9,30.01,North,0,0.0,0.0,89,0.00,,,0.12,open2300-1.11,2013-09-30 02:52:00,
2013-09-29 23:02:00,58.1,54.9,30.01,North,0,0.0,0.0,89,0.00,,,0.12,open2300-1.11,2013-09-30 03:02:00,
2013-09-29 23:12:00,58.3,55.1,30.01,North,0,0.0,0.0,89,0.00,,,0.12,open2300-1.11,2013-09-30 03:12:00,
2013-09-29 23:22:00,58.3,55.1,30.02,North,0,0.0,0.0,89,0.00,,,0.12,open2300-1.11,2013-09-30 03:22:00,
2013-09-29 23:32:00,58.3,55.1,30.02,North,0,0.0,0.0,89,0.00,,,0.12,open2300-1.11,2013-09-30 03:32:00,
2013-09-29 23:42:00,58.3,55.1,30.02,North,0,0.0,0.0,89,0.00,,,0.12,open2300-1.11,2013-09-30 03:42:00,
2013-09-29 23:52:00,58.3,55.1,30.02,North,0,0.0,0.0,89,0.00,,,0.12,open2300-1.11,2013-09-30 03:52:00,